Location: Newark
(25.3833°N, 97.4000°E)
Time: 22:14:09
(UTC+00:00)

First-Move - Pass Details

Date: 29 February 2020
Orbit: 576 x 669 km, 97.6° (Epoch: 06 April)

Event Time Altitude Azimuth Distance (km) Brightness Sun altitude
Rises 23:07:40 0° 17° (NNE) 2,987 ? -11.1°
Reaches altitude 10° 23:09:57 10° 21° (NNE) 2,063 ? -10.6°
Maximum altitude 23:14:22 57° 100° (E) 760 ? -9.6°
Drops below altitude 10° 23:18:40 10° 179° (S) 2,002 ? -8.6°
Sets 23:20:51 0° 183° (S) 2,891 ? -8.1°
